sat.trackr.live / text

‹ back to catalog

STARLINK-35213

NORAD 65638 · 2025-210S

PAYLOAD ACTIVE UNKNOWN

§ Identity

Operator
Country
US
Launch date
2025-09-18
Launch site
AFETR
Launch vehicle
Mass (kg)
RCS (m²)

Purposes: comms

External: N2YO · Heavens-Above · Gunter

§ Orbital elements

Epoch: 2026-09-20T21:51:02.225952Z

Period
93.85 min
Inclination
53.1572°
Eccentricity
0.0001334
Mean motion
15.34416605 rev/d
Perigee alt
461.7 km
Apogee alt
463.6 km
Semi-major
6,840.8 km
B*
7.5472e-4
RAAN
115.8124°
Arg perigee
49.5769°
Mean anomaly
310.5350°
Rev number
5,768

§ Raw data

STARLINK-352131 65638U 25210S   26263.91044243  .00025223  00000+0  75472-3 0  99952 65638  53.1572 115.8124 0001334  49.5769 310.5350 15.34416605 57684

JSON: /api/v1/satellites/65638 · /tle

For live sub-satellite position, see the globe view (requires WebGL).

§ Visibility from observer

Set your observer location to see the next 7 days of passes ≥ 10°. The values pass through the URL so the page stays shareable.

No JS? Fill the form by hand. The geolocation button needs JavaScript.